This demonstration page uses our WeatherBlox Daily Observations layout. Learn more.

Left ArrowRight Arrow

39.51506, -84.39828

Hourly Observations for September 16, 2020

Temp ( °F °C ) Dew Point ( °F °C ) Humidity (%) Winds ( mph kmh ) Pressure ( in mb ) Visibility ( mi km ) Precip ( " mm )
12:15 am 00:15 Clear 50 10 N/A N/A Calm 30.19 1022 10 16.0934 0 0
12:35 am 00:35 Clear 50 10 N/A N/A Calm 30.19 1022 10 16.0934 0 0
12:55 am 00:55 Clear 50 10 N/A N/A Calm 30.19 1022 10 16.0934 0 0
1:15 am 01:15 Clear 50 10 N/A N/A Calm 30.18 1022 10 16.0934 0 0
1:35 am 01:35 Clear 48 9 N/A N/A Calm 30.18 1022 10 16.0934 0 0
1:55 am 01:55 Clear 48 9 N/A N/A Calm 30.17 1022 10 16.0934 0 0
2:15 am 02:15 Clear 48 9 N/A N/A Calm 30.17 1022 10 16.0934 0 0
2:35 am 02:35 Clear 48 9 N/A N/A Calm 30.17 1022 10 16.0934 0 0
2:55 am 02:55 Clear 46 8 N/A N/A Calm 30.17 1022 10 16.0934 0 0
3:15 am 03:15 Clear 48 9 N/A N/A Calm 30.17 1022 10 16.0934 0 0
3:35 am 03:35 Clear 46 8 N/A N/A Calm 30.16 1021 10 16.0934 0 0
3:55 am 03:55 Clear 46 8 N/A N/A Calm 30.15 1021 10 16.0934 0 0
4:15 am 04:15 Clear 48 9 N/A N/A Calm 30.15 1021 10 16.0934 0 0
4:35 am 04:35 Clear 46 8 N/A N/A Calm 30.15 1021 10 16.0934 0 0
4:55 am 04:55 Clear 46 8 N/A N/A Calm 30.14 1021 10 16.0934 0 0
5:15 am 05:15 Clear 46 8 N/A N/A Calm 30.14 1021 10 16.0934 0 0
5:35 am 05:35 Clear 46 8 N/A N/A Calm 30.14 1021 10 16.0934 0 0
5:55 am 05:55 Clear 46 8 N/A N/A Calm 30.14 1021 10 16.0934 0 0
6:15 am 06:15 Clear 48 9 N/A N/A Calm 30.14 1021 10 16.0934 0 0
6:35 am 06:35 Clear 46 8 N/A N/A Calm 30.14 1021 10 16.0934 0 0
6:55 am 06:55 Clear 46 8 N/A N/A Calm 30.14 1021 10 16.0934 0 0
7:15 am 07:15 Clear 46 8 N/A N/A Calm 30.14 1021 7 11.26538 0 0
7:35 am 07:35 Hazy 46 8 N/A N/A Calm 30.14 1021 7 11.26538 0 0
7:55 am 07:55 Sunny 46 8 N/A N/A Calm 30.14 1021 7 11.26538 0 0
8:15 am 08:15 Sunny 48 9 N/A N/A Calm 30.14 1021 7 11.26538 0 0
8:35 am 08:35 Sunny 50 10 N/A N/A Calm 30.15 1021 10 16.0934 0 0
8:55 am 08:55 Sunny 52 11 N/A N/A Calm 30.14 1021 10 16.0934 0 0
9:15 am 09:15 Sunny 53 11.7 53 11.5 99 99 Calm 30.13 1020 10 16.0934 0 0
9:35 am 09:35 Sunny 55 12.9 53 11.9 94 94 Calm 30.13 1020 10 16.0934 0 0
9:55 am 09:55 Sunny 57 13.9 54 12.2 90 90 Calm 30.13 1020 10 16.0934 0 0
10:15 am 10:15 Sunny 59 14.9 55 12.7 87 87 Calm 30.13 1020 10 16.0934 0 0
10:35 am 10:35 Sunny 61 16.3 55 12.9 80 80 Calm 30.12 1020 10 16.0934 0 0
10:55 am 10:55 Sunny 64 17.5 55 13 75 75 Calm 30.12 1020 10 16.0934 0 0
11:15 am 11:15 Sunny 66 19 57 13.8 72 72 SW 3 6 30.12 1020 10 16.0934 0 0
11:35 am 11:35 Sunny 67 19.7 58 14.3 71 71 SSW 5 7 30.12 1020 10 16.0934 0 0
11:55 am 11:55 Sunny 69 20.3 58 14.6 70 70 SW 3 6 30.1 1019 10 16.0934 0 0
12:15 pm 12:15 Sunny 70 21 58 14.5 67 67 Calm 30.09 1019 10 16.0934 0 0
12:35 pm 12:35 Sunny 72 22.1 59 14.8 63 63 S 5 7 30.09 1019 10 16.0934 0 0
12:55 pm 12:55 Sunny 73 22.7 58 14.2 59 59 SSE 5 7 30.08 1019 10 16.0934 0 0
1:15 pm 13:15 Sunny 73 23 57 14 57 57 S 5 7 30.07 1018 10 16.0934 0 0
1:35 pm 13:35 Sunny 76 24.2 57 13.7 52 52 W 6 9 30.06 1018 10 16.0934 0 0
1:55 pm 13:55 Sunny 75 23.9 56 13.3 52 52 Calm 30.06 1018 10 16.0934 0 0
2:15 pm 14:15 Sunny 76 24.4 55 12.9 49 49 Calm 30.05 1018 10 16.0934 0 0
2:35 pm 14:35 Sunny 77 24.9 55 12.5 46 46 Calm 30.04 1017 10 16.0934 0 0
2:55 pm 14:55 Sunny 78 25.3 51 10.5 39 39 Calm 30.04 1017 10 16.0934 0 0
3:15 pm 15:15 Sunny 78 25.7 51 10.6 39 39 Calm 30.02 1017 10 16.0934 0 0
3:35 pm 15:35 Sunny 79 25.9 53 11.4 40 40 S 3 6 30.02 1017 10 16.0934 0 0
3:55 pm 15:55 Sunny 79 26 54 12 42 42 Calm 30.01 1016 10 16.0934 0 0
4:15 pm 16:15 Sunny 79 26.3 54 12.2 42 42 Calm 30.01 1016 10 16.0934 0 0
4:35 pm 16:35 Sunny 80 26.4 54 12.2 41 41 WSW 6 9 30 1016 10 16.0934 0 0
4:55 pm 16:55 Sunny 79 26.2 53 11.6 40 40 Calm 30 1016 10 16.0934 0 0
5:15 pm 17:15 Sunny 79 26.3 52 11.2 39 39 SW 5 7 30 1016 10 16.0934 0 0
5:35 pm 17:35 Sunny 79 26.2 51 10.5 37 37 Calm 30 1016 10 16.0934 0 0
5:55 pm 17:55 Sunny 79 26.2 50 10 36 36 Calm 30 1016 10 16.0934 0 0
6:15 pm 18:15 Sunny 78 25.3 51 10.6 40 40 SW 5 7 30 1016 10 16.0934 0 0
6:35 pm 18:35 Sunny 76 24.4 52 11 43 43 SW 5 7 30.01 1016 10 16.0934 0 0
6:55 pm 18:55 Sunny 74 23.6 53 11.5 47 47 SW 3 6 30.01 1016 10 16.0934 0 0
7:15 pm 19:15 Sunny 73 22.5 55 12.9 55 55 Calm 30.02 1017 10 16.0934 0 0
7:35 pm 19:35 Sunny 72 22.1 56 13.1 57 57 Calm 30.02 1017 10 16.0934 0 0
7:55 pm 19:55 Clear 72 22.4 55 13 55 55 Calm 30.03 1017 10 16.0934 0 0
8:15 pm 20:15 Clear 69 20.5 56 13.4 64 64 Calm 30.03 1017 10 16.0934 0 0
8:35 pm 20:35 Clear 65 18.2 59 15.1 82 82 Calm 30.04 1017 10 16.0934 0 0
8:55 pm 20:55 Clear 65 18.6 59 14.9 79 79 Calm 30.04 1017 10 16.0934 0 0
9:15 pm 21:15 Clear 63 17 59 14.8 87 87 Calm 30.05 1018 10 16.0934 0 0
9:35 pm 21:35 Clear 61 16.2 58 14.4 89 89 Calm 30.05 1018 10 16.0934 0 0
9:55 pm 21:55 Clear 59 15.1 58 14.2 94 94 Calm 30.06 1018 10 16.0934 0 0
10:15 pm 22:15 Clear 59 14.8 58 14.3 97 97 Calm 30.06 1018 10 16.0934 0 0
10:35 pm 22:35 Clear 57 14 56 13.6 97 97 Calm 30.06 1018 10 16.0934 0 0
10:55 pm 22:55 Clear 57 13.8 56 13.6 99 99 Calm 30.06 1018 10 16.0934 0 0
11:15 pm 23:15 Clear 57 14.1 57 14 99 99 Calm 30.06 1018 10 16.0934 0 0
11:35 pm 23:35 Clear 57 13.7 56 13.5 99 99 Calm 30.06 1018 10 16.0934 0 0
11:55 pm 23:55 Clear 55 13 54 12 94 94 Calm 30.06 1018 7 11.26538 0 0

Powered by AerisWeather